Back to catalog

THOR ABLESTAR DEB

AliveLEO
NORAD 224·DEBRIS·🇺🇸 United States

Launched Jun 29, 1961 from Cape Canaveral Space Force Station

Loading…

Next Passes (next 24 hours)

TLE

FreshSource: Space-Track

Epoch: Sep 5, 2026, 11:13 UTC

1 00224U 61015BL  26248.46761639  .00000099  00000-0  96472-4 0  9995
2 00224  66.7370 309.0981 0065957 326.3233 129.3850 14.12175373323856

Track THOR ABLESTAR DEB in real time with AllMySat

Download on the App Store